Tracking 28052 objects as of 25-Sep-2023
HD Live streaming from Space Station
objects crossing your sky now

STARLINK-5898

Track STARLINK-5898 now!
10-day predictions
STARLINK-5898 is classified as:


NORAD ID: 55929
Int'l Code: 2023-037R
Perigee: 577.1 km
Apogee: 581.3 km
Inclination: 70.0 °
Period: 96.1 minutes
Semi major axis: 6950 km
RCS: Unknown
Launch date: March 17, 2023
Source: United States (US)
Launch site: AIR FORCE WESTERN TEST RANGE (AFWTR)
Your satellite tracking list
Your tracking list is empty




NASA's NSSDC Master Catalog

Two Line Element Set (TLE):
1 55929U 23037R   23267.79178028 -.00000979  00000-0 -74286-4 0  9995
2 55929  70.0021  45.7336 0003051 272.9942  87.0868 14.98333575 29145
Source of the keplerian elements: AFSPC